{"data":{"norad_id":65862,"intl_designator":"2025-223J","name":"STARLINK-35386","alt_names":[],"object_type":"PAYLOAD","status":"ACTIVE","operator":null,"country":"US","launch_date":"2025-10-03","launch_site_code":"AFWTR","launch_vehicle":null,"mission":null,"orbit_class":"UNKNOWN","rcs_meters":null,"size_class":null,"mass_kg":null,"dimensions":null,"purposes":["comms"],"wikipedia_slug":null,"has_3d_model":false,"image_url":null,"decayed_at":null,"tle_current":{"epoch":"2026-09-20T06:33:23.387040Z","epoch_age_seconds":125708,"freshness":"FRESH","line1":"1 65862U 25223J   26263.27318735  .00007307  00000+0  22716-3 0  9993","line2":"2 65862  53.1574 107.0686 0000424 103.8048 256.3002 15.34400306 54043","mean_motion":15.34400306,"eccentricity":4.24e-5,"inclination_deg":53.1574,"raan_deg":107.0686,"arg_perigee_deg":103.8048,"mean_anomaly_deg":256.3002,"bstar":0.00022716,"rev_number":5404,"period_min":93.84773936561,"perigee_km":462.41227912315,"apogee_km":462.99238229839,"semimajor_km":6840.8393307108,"source":"CELESTRAK","updated_at":"2026-09-21T09:00:35.726819Z"}}}